Regional Weather Roundup
Issued by NWS Sterling, VA

Home | Current Version | Previous Version | Graphics & Text | Print | Product List | Glossary On
Versions: 1 2 3 4 5 6 7 8 9 10 11 12 13 14 15 16 17 18 19 20 21 22 23 24 25 26 27 28
000
ASUS41 KLWX 210210
RWRLWX

REGIONAL WEATHER ROUNDUP
NATIONAL WEATHER SERVICE BALTIMORE MD/WASHINGTON DC
1000 PM EDT WED SEP 20 2017

Note: "FAIR" indicates few or no clouds below 12,000 feet
with no significant weather and/or obstructions to visibility.
 TC=TEMPERATURE CELSIUS

 * =Non NWS site. Station does not report precipitation (e.g. rain,
    snow, etc.), thunder, or fog.

DCZ001-MDZ009-015-VAZ040>042-051-053>054-210300-
WASHINGTON METRO

CITY           SKY/WX    TMP DP  RH WIND       PRES   REMARKS
WASHINGTON NAT PTCLDY    75  66  73 CALM      29.97R
DULLES         PTCLDY    67  63  87 NW3       29.99R
ANDREWS AFB    CLEAR     65  61  84 CALM      29.97R
FT BELVOIR     CLEAR     67  64  91 CALM      29.97R
QUANTICO       CLEAR     71  68  90 NW5       29.98R
COLLEGE PARK*  CLEAR     66  64  90 CALM      29.97R
LEESBURG*      CLEAR     68  66  94 CALM      30.00R
MANASSAS*      CLEAR     64  62  93 CALM      29.99R
GAITHERSBURG*  CLEAR     65  63  93 CALM      30.00R

$$

MDZ006>007-011-014-210300-
BALTIMORE METRO

CITY           SKY/WX    TMP DP  RH WIND       PRES   REMARKS
BWI AIRPORT    CLEAR     66  64  93 W5        29.96R
MD SCIENCE CTR   N/A     80  62  54 MISG      29.96R
MARTIN STATE   CLEAR     73  64  73 CALM      29.97
ANNAPOLIS      CLEAR     75  72  90 NW5       29.96R
FORT MEADE*    CLEAR     63  63 100 CALM      29.99R

$$

MDZ012-015-019>023-210300-
MARYLAND EASTERN SHORE

CITY           SKY/WX    TMP DP  RH WIND       PRES   REMARKS
OCEAN CITY     CLEAR     71  70  96 CALM      29.95R
SALISBURY      PTCLDY    72  69  90 CALM      29.94R
CAMBRIDGE*     CLEAR     68  68 100 CALM      29.95R

$$

MDZ017>025-210300-
SOUTHERN MARYLAND

CITY           SKY/WX    TMP DP  RH WIND       PRES   REMARKS
PATUXENT RIVER PTCLDY    65  64  97 W3        29.96R
ST INIGOES     CLEAR     66  65  96 CALM      29.95R
LEONARDTOWN*   CLEAR     66  63  88 CALM      29.98R

$$

MDZ003>005-210300-
NORTH CENTRAL MARYLAND

CITY           SKY/WX    TMP DP  RH WIND       PRES   REMARKS
FREDERICK*     CLEAR     64  64 100 CALM      30.01R
HAGERSTOWN APT CLEAR     73  59  61 N5        30.00R
WESTMINSTER*   CLEAR     73  63  68 CALM      29.99S

$$

MDZ501>502-210300-
WESTERN MARYLAND

CITY           SKY/WX    TMP DP  RH WIND       PRES   REMARKS
OAKLAND*       CLEAR     63  61  94 W3        30.12R
CUMBERLAND*    CLEAR     72  61  68 N5        30.07R

$$

VAZ025>031-210300-
SHENANDOAH VALLEY

CITY           SKY/WX    TMP DP  RH WIND       PRES   REMARKS
WINCHESTER*    CLEAR     63  59  88 CALM      30.01S
FRONT ROYAL*   CLEAR     64  63  94 CALM      30.01R
LURAY*         CLEAR     68  63  83 CALM      30.03R
NEW MARKET*    CLEAR     66  62  86 CALM      30.02R
STAUNTON*      CLEAR     65  62  91 CALM      30.07R
WAYNESBORO*    CLEAR     65  65 100 CALM      30.06R

$$

WVZ021-048>050-054>055-210300-
EASTERN WEST VIRGINIA PANHANDLE

CITY           SKY/WX    TMP DP  RH WIND       PRES   REMARKS
MARTINSBURG    CLEAR     66  59  78 CALM      30.00R
PETERSBURG*    CLEAR     68  65  89 CALM      30.05R

$$

VAZ036>039-050-210300-
CENTRAL FOOTHILLS

CITY           SKY/WX    TMP DP  RH WIND       PRES   REMARKS
CHARLOTTESVILL PTCLDY    75  67  76 CALM      30.01R
CULPEPER*      CLEAR     66  65  95 N3        30.00R
ORANGE*        CLEAR     66  64  94 CALM      30.00R
GORDONSVILLE*  CLEAR     68  67  98 CALM      30.00R
WARRENTON*     CLEAR     62  57  84 CALM      29.98S

$$

VAZ055>057-210300-
NORTH AND CENTRAL PIEDMONT

CITY           SKY/WX    TMP DP  RH WIND       PRES   REMARKS
FREDERICKSBRG* CLEAR     68  64  88 CALM      29.97R
STAFFORD*      CLEAR     64  64 100 CALM      30.02R

$$

NCZ024-NYZ072-PAZ021-071-VAZ022-071-210300-
OTHER REGIONAL OBSERVATIONS

CITY           SKY/WX    TMP DP  RH WIND       PRES   REMARKS
NEW YORK CITY  CLOUDY    76  63  64 VRB6      29.95S
PHILADELPHIA   PTCLDY    77  64  64 NE3       29.94R
PITTSBURGH     PTCLDY    71  66  84 CALM      30.05R
ROANOKE        CLOUDY    70  67  90 W3        30.07R
RICHMOND       CLEAR     72  66  81 CALM      29.97R
RALEIGH        PTCLDY    74  69  85 CALM      30.00R

$$

ANZ530>537-210300-
MARINE OBSERVATIONS

STATION/POSITION TIME  TEMP    WIND        PRES
                       AIR SEA DIR/SP/G
                 (UTC) (F)     (DEG/KT/KT) (MB)
THOMAS PT LIGHT  0200   79 76  340/  7/  8   N/A
BALT KEY BRIDGE  0142   78     270/  4/  4 1014.2R
COVE POINT       0142   76     300/  3/  4 1015.0R
LEWISETTA        0142   74 77  300/  2/  3 1014.2R
SOLOMONS ISLAND  0142   73 76     CALM     1014.0R
PINEY POINT      0136          320/  3/  3   N/A

$$





USA.gov is the U.S. government's official web portal to all federal, state and local government web resources and services.